RH
61 26 30 28 22 23 23 16 14 20 18 22 27 38 47 32 27 63 51 54 61 79 87 87 94 93 91 89 89 89 89 90 89 90 90 91 93 93 93 93 90 88 85 81 81 81 81 84 89
37 23 27 24 24 30 21 14 21 19 16 20 25 39 35 40 37 53 54 49 60 72 79 89 94 92 91 90 90 91 90 90 89 90 90 90 92 92 93 93 92 89 86 79 78 78 80 87 90
34 24 26 26 30 29 20 16 17 15 14 15 32 37 48 46 41 42 46 48 51 57 70 88 95 95 93 92 91 92 91 91 90 89 90 90 91 92 92 92 92 90 86 78 75 78 83 89 91
24 23 20 23 24 18 18 16 14 14 14 30 33 35 34 34 38 38 43 44 46 58 80 91 94 95 94 94 93 92 91 91 90 90 90 90 89 90 92 92 92 90 86 82 78 83 86 89 91
27 22 26 31 19 15 15 12 12 13 14 35 36 51 55 35 35 36 41 41 50 70 80 86 92 93 93 94 94 93 92 91 90 90 90 90 90 91 91 91 91 90 89 87 85 86 86 88 90
20 20 24 23 14 14 19 15 12 12 12 32 45 61 54 43 36 43 52 60 66 72 80 82 89 91 92 92 93 93 93 92 91 91 90 89 90 90 90 90 90 90 91 90 89 88 85 86 87
22 25 29 24 16 19 18 16 16 16 21 46 48 62 62 47 38 39 66 68 68 73 81 90 92 88 90 91 91 92 91 90 90 89 89 90 90 91 90 89 90 90 90 92 92 91 87 83 85
17 20 21 20 18 24 17 14 14 14 18 32 39 55 61 52 41 53 68 72 76 78 82 87 92 92 96 94 91 90 90 89 89 88 88 90 89 88 88 88 89 89 90 91 92 94 92 89 85
14 19 20 20 20 20 15 15 14 14 14 24 36 44 41 41 46 55 70 79 88 79 81 84 84 87 93 95 89 90 87 87 88 89 88 91 92 88 86 89 89 90 90 91 92 93 95 96 94
16 21 21 17 20 18 15 15 14 15 14 14 36 37 37 42 48 61 88 88 83 93 92 91 91 88 91 78 95 93 89 93 90 89 94 97 96 95 86 87 89 94 93 91 92 94 95 97 99
19 24 18 14 18 16 17 15 14 17 18 18 22 44 41 40 49 82 83 82 79 90 88 96 95 91 87 88 88 89 94 96 92 88 92 95 94 94 95 95 93 92 90 96 90 93 95 95 95
25 18 17 16 16 16 17 16 14 19 17 16 17 16 28 43 76 78 82 82 82 82 72 96 96 96 93 89 87 88 97 95 95 91 87 94 95 94 91 94 84 92 94 90 93 91 87 93 92
21 18 17 17 16 18 15 17 16 14 14 14 16 16 17 75 79 79 70 73 77 78 97 97 96 97 95 95 97 96 95 95 93 92 86 90 93 94 93 93 93 90 92 92 89 90 89 88 88
20 20 20 18 18 17 18 18 19 16 13 15 16 26 56 84 90 90 90 96 93 94 96 95 95 94 92 92 90 93 93 92 93 93 86 84 92 93 94 94 92 89 93 93 90 72 78 83 78
21 24 23 20 19 20 18 20 19 17 16 19 22 56 56 58 66 84 90 89 87 93 91 90 91 87 87 88 90 91 89 88 90 86 78 78 82 79 82 84 91 91 90 86 86 82 78 80 62
26 27 31 20 18 19 18 25 19 18 18 22 38 55 56 55 59 63 62 73 77 82 86 82 69 83 83 80 77 70 70 70 67 66 73 72 74 76 76 78 84 82 81 79 81 81 78 77 76
31 34 26 23 16 20 22 24 22 19 20 30 46 58 57 60 61 63 56 59 66 68 69 72 71 71 72 67 66 63 62 61 66 71 74 74 76 76 77 80 83 83 81 84 84 84 84 79 79
32 29 30 25 20 20 25 24 20 20 19 35 50 57 56 60 61 52 50 53 58 61 62 61 65 64 64 64 61 65 66 72 73 73 74 73 77 74 76 77 78 78 79 82 85 86 83 87 84
24 25 25 21 16 19 26 27 20 23 28 43 51 58 57 58 54 52 53 57 60 63 62 62 61 64 65 71 73 65 69 69 74 75 71 73 75 75 78 81 81 83 82 79 78 83 86 83 84
25 27 27 22 18 21 25 27 25 29 30 30 46 51 50 55 56 53 52 56 56 57 59 60 59 55 59 63 67 65 68 71 73 77 72 69 70 74 72 82 83 84 87 85 84 89 89 86 80
26 27 24 21 16 23 25 28 27 34 26 32 42 45 44 50 56 55 54 64 62 59 58 56 54 59 59 62 66 70 74 72 76 76 73 66 69 73 74 78 82 84 86 88 86 85 88 94 86
31 20 21 24 26 35 25 37 25 36 29 30 39 43 45 44 48 49 55 64 62 60 56 56 55 56 63 74 76 72 79 78 81 75 71 71 70 68 75 77 77 84 86 88 88 81 88 91 92
26 21 23 27 31 34 28 39 68 58 48 42 36 34 37 35 39 47 52 57 59 62 57 61 57 60 72 76 71 82 82 80 78 79 81 81 73 67 63 68 77 81 86 88 88 87 86 85 85
21 24 26 28 35 46 40 55 83 87 70 73 68 33 35 38 38 38 38 47 56 63 61 62 61 63 75 66 70 72 74 77 82 80 77 77 73 69 69 70 77 81 86 85 88 85 85 86 88
27 32 54 54 54 52 43 64 79 64 58 68 74 44 40 43 46 47 47 44 48 63 66 62 59 63 76 69 68 69 73 76 78 76 78 79 74 71 70 74 79 84 85 86 88 89 89 88 89
36 32 56 71 69 53 42 79 70 52 59 58 44 41 42 44 41 46 48 53 56 60 69 61 60 65 74 65 62 70 76 81 78 77 80 85 80 78 71 73 79 81 83 86 88 94 93 91 93
39 51 44 60 55 59 68 76 59 54 47 48 44 46 49 45 43 46 49 54 57 61 74 66 60 58 66 58 60 73 72 72 78 82 81 89 76 65 69 75 78 81 84 84 87 92 89 90 89
38 44 57 68 76 78 56 73 79 75 65 50 53 50 50 48 48 50 52 54 56 61 66 70 67 67 66 69 71 72 76 75 80 80 82 79 75 74 78 81 81 82 81 82 85 90 90 90 87
47 58 58 53 70 88 92 70 56 65 59 57 55 50 55 53 54 54 55 58 61 67 69 71 71 72 71 67 69 72 74 74 78 77 78 74 67 68 66 66 68 70 74 75 77 78 78 84 86
44 48 50 84 70 86 88 83 45 55 55 53 48 48 56 57 58 58 58 57 59 62 64 69 72 67 74 75 77 73 71 66 63 62 60 61 61 58 55 57 60 63 66 67 69 72 76 77 83
Wind_Speed
6 8 2 3 5 5 5 10 5 11 9 7 12 17 3 10 5 4 2 15 18 15 8 10 14 17 16 15 15 13 14 13 12 12 11 10 10 9 9 8 8 8 8 8 7 7 7 7 6
4 6 2 2 5 2 7 5 12 9 6 13 20 25 19 9 7 13 7 14 13 15 9 5 11 15 16 14 12 12 13 12 12 11 10 10 9 10 8 7 7 7 6 6 5 5 5 6 6
4 3 3 3 3 5 5 6 7 7 5 6 7 17 15 5 2 2 17 18 16 13 11 9 11 10 12 13 12 10 11 10 11 10 9 9 9 8 8 7 6 6 5 4 5 5 5 4 3
3 5 5 2 7 7 4 5 5 5 3 10 6 8 1 5 5 10 19 19 16 11 12 11 12 13 14 13 11 11 10 9 9 9 9 7 6 5 5 5 4 3 3 4 4 5 3 3 1
2 2 2 4 6 6 5 6 6 5 5 9 5 4 5 7 8 13 19 16 16 11 10 10 12 11 11 11 12 12 11 10 10 9 8 8 6 5 6 5 4 3 2 2 3 3 3 2 2
4 3 5 6 15 4 4 7 6 5 6 14 11 8 4 4 8 1 12 16 14 13 10 10 10 11 11 11 9 8 8 8 8 8 7 7 8 7 6 6 4 3 3 3 3 3 3 3 4
4 2 6 7 9 4 3 3 6 4 8 8 16 8 6 6 8 9 13 15 13 12 11 9 8 9 11 11 11 10 8 8 7 6 5 4 4 3 3 4 5 5 5 5 4 5 5 7 7
2 4 9 6 5 3 4 5 3 5 2 20 19 8 6 7 8 18 12 11 12 10 9 7 5 5 6 7 10 8 7 6 7 6 5 5 4 5 7 8 8 9 8 7 7 8 8 7 7
2 3 6 7 8 4 7 7 9 6 4 4 8 12 7 13 9 12 13 13 6 7 7 7 6 6 6 6 7 8 7 6 4 2 3 3 2 4 6 6 9 10 9 9 9 9 7 7 8
4 3 4 4 1 5 8 8 4 4 9 7 6 10 7 7 12 15 16 13 21 24 10 8 7 3 5 5 5 5 6 6 8 9 7 4 5 5 3 2 9 4 7 8 8 9 9 7 3
4 2 6 6 2 4 5 10 7 3 4 5 8 13 10 9 15 21 16 17 23 28 13 8 9 11 11 9 6 6 6 6 6 11 9 8 7 6 6 6 7 5 6 3 4 5 4 5 4
2 4 6 5 2 2 5 8 10 3 4 4 8 9 7 3 22 19 17 19 27 27 20 8 9 9 9 6 8 7 5 6 5 7 9 8 6 7 6 5 6 6 6 8 7 5 5 4 8
5 5 8 8 6 3 4 7 8 8 7 6 2 9 7 22 18 13 15 13 13 8 8 10 9 8 7 9 6 7 6 4 5 5 5 8 5 5 5 5 6 6 6 6 7 6 5 6 7
8 7 8 9 11 6 6 7 4 8 8 6 7 14 22 21 18 15 10 7 6 11 8 10 7 7 8 7 9 7 6 4 4 1 4 5 7 4 4 4 5 5 4 4 6 7 5 4 5
9 9 9 11 10 8 4 6 7 4 7 3 11 17 22 19 14 12 11 14 14 10 9 8 7 8 7 6 6 3 7 7 5 1 5 7 7 5 4 4 4 4 4 5 4 5 6 7 7
5 5 5 9 14 6 9 8 13 10 8 6 11 15 19 17 15 12 12 12 11 10 8 6 8 8 9 6 1 3 3 5 7 4 5 6 5 5 5 4 4 4 4 4 5 4 4 4 4
1 4 9 5 7 6 5 6 2 8 11 10 9 12 14 14 12 9 9 10 10 9 9 9 8 7 8 6 5 5 6 5 6 5 4 6 6 5 4 4 4 5 4 4 4 4 3 4 5
6 6 6 6 7 3 5 7 6 7 8 14 11 11 11 12 10 11 12 11 9 8 8 8 6 8 7 5 5 4 4 4 5 4 4 5 5 5 5 4 5 5 4 3 3 4 4 3 5
5 6 7 8 10 7 7 5 7 9 13 15 12 9 9 9 7 9 8 8 8 8 8 7 8 5 4 2 3 2 2 3 3 3 5 5 5 7 6 4 5 5 4 4 4 3 4 3 4
5 5 8 6 9 8 9 6 3 11 9 13 18 11 11 7 6 6 8 7 6 7 8 7 6 6 4 3 2 3 2 3 3 2 4 6 5 5 4 4 4 5 5 6 4 4 4 3 5
3 5 6 8 10 6 7 7 5 0 15 17 17 15 11 12 8 5 6 3 6 7 8 8 7 7 5 5 3 3 3 3 3 4 4 4 5 2 2 2 3 4 3 4 5 4 4 3 4
3 9 7 7 6 4 1 5 7 8 9 14 17 13 9 9 8 9 8 6 7 6 6 8 8 8 7 7 6 6 2 2 2 2 3 4 5 4 4 2 2 3 3 4 3 4 3 3 5
7 6 5 4 7 5 6 4 7 14 11 8 9 14 10 8 8 6 7 8 7 8 8 8 9 8 7 7 7 5 5 2 1 2 5 6 5 5 4 2 2 3 3 4 5 4 4 2 4
5 5 8 7 2 4 3 5 4 4 4 8 17 9 10 8 8 8 6 6 6 7 8 9 10 7 8 7 7 6 4 0 2 3 4 5 3 2 3 3 3 4 4 5 5 5 5 5 4
4 2 4 4 2 4 10 8 4 6 5 5 4 10 7 9 11 13 12 10 6 7 8 8 9 8 8 7 7 6 5 3 3 4 4 6 4 3 4 3 4 3 5 5 5 5 6 5 4
5 7 4 2 2 3 4 5 2 3 10 9 10 8 11 14 14 13 13 12 10 8 4 6 7 7 7 7 7 5 4 2 1 3 4 5 4 2 3 4 5 6 6 6 6 4 5 5 5
4 4 5 2 3 4 6 2 3 3 4 2 9 8 12 12 14 13 14 12 13 14 9 6 4 4 7 5 3 3 3 4 4 5 6 4 4 2 3 6 7 7 7 7 7 5 7 6 7
2 1 5 4 2 2 3 6 5 5 8 6 7 11 11 12 13 12 10 10 10 13 15 16 15 16 11 8 7 6 6 9 9 10 12 13 11 11 10 9 8 8 7 7 7 7 8 9 9
4 2 3 2 5 5 0 5 4 11 10 9 8 13 12 11 11 10 10 12 12 11 12 11 11 12 10 10 10 11 10 9 8 8 8 9 11 11 12 11 11 11 10 9 9 9 9 10 11
4 3 4 6 1 2 6 7 2 10 9 12 13 12 12 12 11 11 11 10 11 10 10 10 10 11 8 7 8 9 10 11 11 11 11 10 10 11 12 12 12 13 12 12 12 13 12 11 12
Wind_Direction
314 295 183 11 45 72 256 249 269 45 60 84 82 88 121 34 104 179 94 114 120 123 119 129 136 133 136 140 140 135 131 132 131 129 125 122 116 110 100 97 100 98 97 97 93 89 93 90 85
324 315 49 268 92 349 289 150 70 77 73 95 68 73 46 25 35 118 111 125 120 121 119 130 135 133 135 137 133 131 134 136 134 131 130 129 128 126 117 108 104 98 96 97 95 93 92 94 100
305 193 65 142 154 210 242 55 107 96 84 96 109 108 136 217 151 123 129 130 128 128 128 134 122 111 117 123 127 128 128 131 132 129 128 131 135 136 138 136 126 114 106 98 94 87 79 82 86
324 9 338 91 254 247 141 30 33 95 119 79 129 74 149 234 131 135 139 134 134 126 125 131 129 131 130 127 127 129 132 133 133 134 134 135 136 132 128 128 118 125 119 102 92 88 82 85 93
178 2 330 297 274 274 48 60 30 332 181 96 117 15 2 16 70 128 139 140 130 130 128 129 127 124 125 128 133 135 136 142 145 143 145 146 144 153 162 172 172 156 129 118 122 128 148 163 206
353 108 6 307 313 205 29 43 0 339 27 104 78 100 226 256 114 183 108 120 126 130 122 121 119 122 121 120 117 117 127 138 141 141 146 153 160 171 180 188 195 200 206 199 190 186 198 210 229
187 83 239 288 272 68 65 19 62 12 14 86 138 120 259 329 180 119 114 112 116 118 119 117 120 121 112 114 118 119 125 131 132 138 139 143 151 178 206 215 220 226 232 238 233 225 226 222 224
181 89 323 312 266 46 21 15 63 36 347 141 135 166 219 237 130 99 101 102 104 103 101 108 103 109 111 113 107 107 118 122 126 137 142 149 168 200 215 215 220 223 222 225 233 236 241 247 247
311 42 318 319 14 334 20 43 344 352 358 104 145 155 182 183 124 103 97 57 44 87 113 125 136 144 117 113 120 117 118 98 79 97 172 176 229 223 220 214 229 224 227 225 230 240 246 249 253
122 97 248 280 24 3 356 10 349 30 348 337 82 108 132 138 141 100 82 66 42 14 15 37 39 80 123 109 99 83 71 55 43 28 29 11 0 3 329 271 239 295 261 250 245 248 245 250 257
239 181 281 296 334 56 338 337 322 18 340 21 75 138 160 173 112 108 101 99 84 38 336 33 43 30 52 53 61 54 46 42 41 36 31 14 20 29 42 30 27 23 343 294 292 255 237 232 233
110 288 277 266 69 26 337 316 321 16 269 73 111 124 147 286 109 112 111 123 125 166 231 129 102 86 66 69 62 54 47 45 37 43 49 38 17 10 41 29 26 34 23 7 332 5 357 293 249
330 307 300 334 328 278 250 273 263 299 295 319 151 119 106 102 104 109 126 132 146 137 88 84 66 82 71 68 70 87 65 67 54 27 44 95 66 1 355 11 18 32 25 351 344 324 334 326 314
308 299 312 308 289 271 247 246 225 268 275 32 63 76 83 109 115 123 138 133 124 103 99 69 54 76 114 108 119 120 130 128 95 65 71 51 70 45 344 13 44 20 1 312 326 343 341 326 333
308 321 300 271 262 247 112 310 248 221 101 85 66 89 83 81 94 115 124 116 107 106 99 103 120 95 52 28 30 105 149 134 93 22 77 58 66 62 40 49 49 22 357 355 354 342 355 348 351
295 289 277 271 235 195 103 278 292 147 137 125 102 93 91 83 78 67 86 109 113 108 117 130 109 104 98 95 52 332 12 62 90 54 51 74 73 60 72 77 47 12 13 13 15 1 350 338 335
277 252 296 301 168 132 125 270 157 179 160 131 108 104 101 96 82 82 81 80 84 93 94 88 93 99 107 124 86 72 69 67 78 62 43 39 43 40 57 52 38 29 25 19 12 344 345 331 314
337 356 338 336 349 0 212 266 286 234 144 149 122 97 90 88 95 93 102 103 101 96 96 99 94 99 98 95 90 60 69 53 60 64 55 46 36 28 33 30 29 23 22 25 15 348 340 332 322
358 350 326 311 310 350 254 235 304 15 54 55 75 95 78 88 92 86 88 96 101 100 98 100 103 99 98 90 106 85 86 68 60 65 52 42 33 21 24 11 21 16 356 350 14 309 336 336 336
339 324 305 302 319 359 325 296 69 108 100 101 119 115 116 96 78 86 92 108 115 125 121 113 103 97 90 106 140 142 134 90 109 85 44 35 38 28 8 12 24 10 355 347 346 13 342 312 348
304 293 290 286 297 298 327 315 274 304 126 115 140 126 130 135 151 151 129 138 123 129 137 129 116 93 85 80 70 55 58 50 26 15 15 355 358 315 314 340 28 355 356 334 329 341 330 304 308
280 266 282 301 320 254 240 293 299 153 113 103 113 127 134 141 153 165 155 176 180 169 138 118 107 94 78 65 61 67 67 59 23 1 315 318 305 294 256 293 12 352 334 339 341 338 321 309 308
259 322 324 310 312 5 325 48 340 22 21 33 88 98 99 94 112 135 172 185 193 156 141 135 119 107 96 76 78 71 60 56 332 318 301 285 275 266 266 278 341 309 310 307 307 314 321 308 311
325 335 314 287 224 273 176 101 60 340 347 23 12 52 89 93 77 75 79 139 166 147 140 144 134 140 127 118 110 111 113 345 325 302 308 309 295 306 314 313 296 292 274 276 271 273 277 280 289
246 296 325 328 33 207 98 90 200 271 168 158 128 247 80 65 58 53 38 30 56 161 161 157 148 152 141 138 143 162 176 191 252 291 295 303 291 284 305 352 331 312 292 281 267 260 259 258 257
313 171 160 296 320 296 93 106 198 301 137 172 177 85 83 73 70 59 49 35 24 46 184 159 150 130 144 150 177 185 164 151 264 280 295 289 271 280 312 322 311 292 285 283 277 266 257 245 246
307 45 198 208 323 61 113 104 342 311 91 77 109 96 85 81 75 65 52 38 22 22 22 132 128 127 155 152 104 92 44 17 337 342 311 308 293 287 287 276 273 272 266 263 263 250 257 249 249
79 2 27 358 83 356 344 136 190 217 224 209 116 99 95 83 74 67 62 53 45 41 41 45 40 46 50 45 37 33 27 17 10 18 19 12 8 4 348 333 319 302 290 284 278 268 258 252 252
36 28 36 71 125 153 57 274 189 193 189 195 115 115 109 99 90 82 68 58 59 54 47 49 46 43 36 32 31 38 33 31 32 21 11 4 2 359 352 346 339 336 334 330 331 320 307 302 289
354 337 152 116 246 135 144 275 232 168 179 135 139 117 108 103 95 83 74 65 59 52 50 47 42 43 34 32 37 33 27 23 21 15 9 5 359 354 349 346 345 338 333 332 324 320 313 309 307